Location: Kerb�bon
(47.7970°N, 3.3487°W)
Time: 13:23:59
(UTC+00:00)

SPOT 1/Viking Rocket - Pass Details

Date: 12 May 2021
Orbit: 776 x 794 km, 98.4° (Epoch: 18 June)

Event Time Altitude Azimuth Distance (km) Brightness Sun altitude
Exits shadow 20:52:17 12° 151° (SSE) 2,199 5.3 -10.5°
Maximum altitude 20:57:02 64° 71° (ENE) 876 3.7 -11.1°
Drops below altitude 10° 21:02:10 10° 351° (N) 2,358 6.9 -11.7°
Sets 21:04:30 0° 349° (N) 3,288 7.8 -11.9°
